FENGYUN 1C DEB, 31081

Orbit data source: Space-Track

FENGYUN 1C DEB, 31081 is space debris in SSO originally from a launch on Mon, 10 May 1999 UTC launched from the Taiyaun Space Center, China (TSC). Fengyun 1C debris stems from the Chinese weather satellite Fengyun-1C, which was intentionally destroyed by a Chinese anti-satellite missile in 2007. This event dramatically increased the amount of space debris, with thousands of trackable fragments posing hazards to satellites and human spaceflight. The Fengyun 1C debris cloud has become a focal point in discussions about space sustainability and the need for international regulations to prevent the creation of new debris.

Loading next visibility...
Identifier
31081, 1999-025BGB
Orbit
SSO
Country
Flag of CNCN / PRC
Related business
Manufacturer
Unknown
Mission
Spacecraft
Bus & Motor
Unknown
Mass
Unknown
Launch date (UTC)
1999-05-10 (27 years ago)
Launch vehicle
Unknown
Launch site
Taiyaun Space Center, China (TSC)
Object type
Payload
Rocket body
Debris
Shape & HBR
Unknown shape, 0.1 m
Radar Cross Section
Small (<0.1 m²)

Expand to show TLE details & history
Last TLE update: 10 hours ago

TLE from 10 hours ago
0 FENGYUN 1C DEB
1 31081U 99025BGB 26121.98959869  .00000178  00000-0  13213-3 0  9992
2 31081  98.7615 139.0227 0047904 196.1442 194.7003 14.06326826984324
Epoch: 2026-05-01T23:45Z
TLE epoch observation values (Epoch: 2026-05-01T23:45:01.326Z)
Latitude
30.36221°
Longitude
-82.29959°
Altitude
909.374 km
Speed
7.383 km/s
True Right ascension
08h 55m 28s
True Declination
30° 12' 56"
Sunlit
Object was in daylight at epoch
Visualization orbit readout
Latitude
Unknown
Longitude
Unknown
Altitude
Unknown
Speed
Unknown
Apparent Right ascension
Unknown
Apparent Declination
Unknown
Sunlit
N/A
Visualization observer readout
Local Sidereal Time
17:23:16
Azimuth
Unknown
Elevation
Unknown
Doppler factor
Unknown
Orbital elements
Apogee altitude
903.865 km
Perigee altitude
834.431 km
Semi-major axis
7,247.285 km
Eccentricity
0.00479
Inclination
98.7615°
RAAN
139.0227°
Arg. of periapsis
196.1442°
True anomaly
194.5618°
Mean anomaly
194.7003°
Eccentric anomaly
194.63097°
Mean motion
3.51787 °/min
Orbital period
102.33 mins
BSTAR
0.00013213
Loading maneuver chart data...
Computing Atmospheric mass density...

Documentation

Showing up to 5 results
|